Location: Limerick
(52.6800°N, 8.6400°W)
Time: 17:40:04
(UTC+00:00)

ISS - All Passes

Search period start: 03 December 2016 00:00
Search period end: 13 December 2016 00:00
Orbit: 401 x 410 km, 51.6° (Epoch: 03 December)

Date Brightness Start Highest point End Pass type
(mag) Time Alt. Az. Time Alt. Az. Time Alt. Az.
03 Dec - 18:08:24 10° S 18:10:39 17° SE 18:12:53 10° ESE visible
03 Dec - 19:43:25 10° WSW 19:46:39 52° SSE 19:49:54 10° E visible
03 Dec - 21:19:44 10° W 21:23:03 75° S 21:26:21 10° E night (unlit)
03 Dec - 22:56:14 10° W 22:59:23 40° SSW 23:02:30 10° SE night (unlit)
04 Dec - 00:34:03 10° WSW 00:35:13 11° SW 00:36:24 10° SSW night (unlit)
04 Dec - 17:17:56 10° SSE 17:18:59 11° SE 17:20:02 10° ESE visible
04 Dec - 18:51:43 10° SW 18:54:49 39° SSE 18:57:57 10° E visible
04 Dec - 20:27:50 10° W 20:31:08 75° S 20:34:28 10° E visible
04 Dec - 22:04:18 10° W 22:07:33 52° SSW 22:10:48 10° ESE night (unlit)
04 Dec - 23:41:16 10° W 23:43:34 17° SW 23:45:51 10° S night (unlit)
05 Dec - 18:00:09 10° SSW 18:03:02 28° SSE 18:05:56 10° E visible
05 Dec - 19:35:57 10° WSW 19:39:14 68° S 19:42:33 10° E visible
05 Dec - 21:12:23 10° W 21:15:40 65° S 21:18:57 10° ESE night (unlit)
05 Dec - 22:49:03 10° W 22:51:50 25° SSW 22:54:37 10° SSE night (unlit)
06 Dec - 17:08:48 10° SSW 17:11:17 20° SE 17:13:46 10° E visible
06 Dec - 18:44:06 10° WSW 18:47:21 57° SSE 18:50:37 10° E visible
06 Dec - 20:20:27 10° W 20:23:46 73° S 20:27:04 10° E visible
06 Dec - 21:56:59 10° W 22:00:03 35° SSW 22:03:07 10° SE night (unlit)
07 Dec - 16:17:54 10° S 16:19:34 13° SE 16:21:14 10° ESE daylight
07 Dec - 17:52:19 10° SW 17:55:28 44° SSE 17:58:39 10° E visible
07 Dec - 19:28:31 10° W 19:31:49 76° S 19:35:08 10° E visible
07 Dec - 21:04:59 10° W 21:08:12 47° SSW 21:11:24 10° SE night (unlit)
07 Dec - 22:42:11 10° WSW 22:44:09 15° SW 22:46:07 10° S night (unlit)
08 Dec - 17:00:39 10° SW 17:03:37 32° SSE 17:06:37 10° E visible
08 Dec - 18:36:35 10° WSW 18:39:53 72° S 18:43:12 10° E visible
08 Dec - 20:13:01 10° W 20:16:17 60° SSW 20:19:34 10° ESE visible
08 Dec - 21:49:47 10° W 21:52:25 22° SSW 21:55:02 10° SSE night (unlit)
09 Dec - 16:09:10 10° SSW 16:11:49 23° SSE 16:14:30 10° E daylight
09 Dec - 17:44:40 10° WSW 17:47:57 62° SSE 17:51:13 10° E visible
09 Dec - 19:21:03 10° W 19:24:21 71° S 19:27:40 10° ESE visible
09 Dec - 20:57:37 10° W 21:00:36 31° SSW 21:03:34 10° SE night (unlit)
10 Dec - 15:18:00 10° S 15:20:03 16° SE 15:22:06 10° ESE daylight
10 Dec - 16:52:49 10° WSW 16:56:01 49° SSE 16:59:14 10° E visible
10 Dec - 18:29:05 10° W 18:32:23 76° S 18:35:42 10° E visible
10 Dec - 20:05:34 10° W 20:08:44 42° SSW 20:11:53 10° SE visible
10 Dec - 21:43:05 10° WSW 21:44:37 13° SW 21:46:09 10° SSW night (unlit)
11 Dec - 16:01:03 10° SW 16:04:07 36° SSE 16:07:11 10° E daylight
11 Dec - 17:37:07 10° W 17:40:24 74° S 17:43:42 10° E visible
11 Dec - 19:13:33 10° W 19:16:48 55° SSW 19:20:04 10° ESE visible
11 Dec - 20:50:26 10° W 20:52:52 19° SW 20:55:16 10° SSE visible
12 Dec - 15:09:26 10° SSW 15:12:15 26° SSE 15:15:04 10° E daylight
12 Dec - 16:45:09 10° WSW 16:48:25 66° S 16:51:43 10° E daylight
12 Dec - 18:21:33 10° W 18:24:51 67° S 18:28:08 10° ESE visible
12 Dec - 19:58:10 10° W 20:01:02 27° SSW 20:03:53 10° SSE visible
